This is the latest recevied weather packets stored in our database for station/object KC4GS-13. If no packets are shown the sender has not sent any weather packets the latest 10 day(s).
| Time | Temp. | Humidity | Pressure | Rain* | Wind** | Luminosity | Snow |
|---|---|---|---|---|---|---|---|
| 1787669765 | 27.78° C | 68% | 1019.8 hPa | 0 mm | - | 380 W/m² | - |
| 1787669465 | 27.22° C | 68% | 1019.8 hPa | 0 mm | - | 98 W/m² | - |
| 1787669160 | 27.22° C | 68% | 1019.6 hPa | 0 mm | - | 141 W/m² | - |
| 1787668856 | 27.22° C | 68% | 1019.7 hPa | 0 mm | - | 296 W/m² | - |
| 1787668553 | 26.67° C | 69% | 1019.7 hPa | 0 mm | - | 97 W/m² | - |
| 1787668247 | 26.67° C | 69% | 1019.7 hPa | 0 mm | - | 235 W/m² | - |
| 1787667942 | 26.67° C | 71% | 1019.7 hPa | 0 mm | - | 389 W/m² | - |
| 1787667637 | 26.67° C | 71% | 1019.5 hPa | 0 mm | - | 113 W/m² | - |
| 1787667333 | 26.11° C | 71% | 1019.6 hPa | 0 mm | - | 104 W/m² | - |
| 1787667032 | 26.11° C | 71% | 1019.4 hPa | 0 mm | - | 210 W/m² | - |
| 1787666729 | 25.56° C | 73% | 1019.4 hPa | 0 mm | - | 468 W/m² | - |
| 1787666428 | 25.56° C | 74% | 1019.4 hPa | 0 mm | - | 247 W/m² | - |
| 1787666123 | 25° C | 74% | 1019.5 hPa | 0 mm | - | 198 W/m² | - |
| 1787665818 | 25° C | 75% | 1019.3 hPa | 0 mm | - | 116 W/m² | - |
| 1787665514 | 24.44° C | 77% | 1019.1 hPa | 0 mm | - | 314 W/m² | - |
| 1787665208 | 24.44° C | 78% | 1019.3 hPa | 0 mm | - | 92 W/m² | - |
| 1787664906 | 23.89° C | 79% | 1019.4 hPa | 0 mm | - | 219 W/m² | - |
| 1787664601 | 23.33° C | 80% | 1019 hPa | 0 mm | - | 146 W/m² | - |
| 1787664296 | 22.78° C | 82% | 1019.4 hPa | 0 mm | - | 68 W/m² | - |
| 1787663994 | 22.78° C | 83% | 1019.3 hPa | 0 mm | - | 55 W/m² | - |
| 1787663690 | 22.22° C | 84% | 1019.3 hPa | 0 mm | - | 81 W/m² | - |
| 1787663390 | 22.22° C | 85% | 1019.1 hPa | 0 mm | - | 57 W/m² | - |
| 1787663086 | 21.67° C | 85% | 1019.2 hPa | 0 mm | - | 58 W/m² | - |
| 1787662782 | 21.11° C | 86% | 1018.9 hPa | 0 mm | - | 50 W/m² | - |
| 1787662476 | 21.11° C | 86% | 1019.1 hPa | 0 mm | - | 40 W/m² | - |
* Rain latest hour (hover to see other rain measurements)
** Current wind speed in m/s (hover to see current wind gust speed)